Mt. Clemens, MI

6:25 PM EDT on October 16, 2019 (GMT -0400)
Selfridge Angb

Weather History for KMTC - September, 2019

Change the Weather History Date:

Friday, September 20, 2019

  Actual Average Record
Temperature  
Mean Temperature 70 °F -  
Max Temperature 79 °F 71 °F 89 °F (1998)
Min Temperature 60 °F 52 °F 35 °F (1956)
Cooling Degree Days 4    
Growing Degree Days 20 (Base 50)    
Moisture  
Dew Point 67 °F    
Average Humidity 91    
Maximum Humidity 100    
Minimum Humidity 73    
Precipitation  
Precipitation 0.00 in - - ()
Sea Level Pressure  
Sea Level Pressure 30.14 in    
Wind  
Wind Speed 3 mph (SE)    
Max Wind Speed 9 mph    
Max Gust Speed -    
Visibility 10 miles    
Events Fog    
Averages and records for this station are not official NWS values.
T = Trace of Precipitation, MM = Missing Value Source: NWS Daily Summary

Daily Weather History Graph

Daily Weather History Graph

Search for Another Location

Airport or City:

Astronomy

Sep. 20, 2019 Rise Set
Actual Time 7:16 AM EDT 7:32 PM EDT
Civil Twilight 6:48 AM EDT 8:00 PM EDT
Nautical Twilight 6:14 AM EDT 8:33 PM EDT
Astronomical Twilight 5:40 AM EDT 9:07 PM EDT
Moon 11:13 PM EDT (9/20) 1:27 PM EDT (9/20)
Length of Visible Light 13h 12m
Length of Day
12h 16m
Waning Gibbous, 65% of the Moon is Illuminated
Sep 20
Waning Gibbous
Sep 21
Last Quarter
Sep 28
New
Oct 5
First Quarter
Oct 13
Full

Hourly Weather History & Observations

Time (EDT) Temp. Dew Point Humidity Pressure Visibility Wind Dir Wind Speed Gust Speed Precip Events Conditions
12:56 AM 60.3 °F 60.3 °F 100% 30.13 in 10.0 mi North 3.5 mph - N/A   Clear
1:56 AM 60.4 °F 60.4 °F 100% 30.13 in 10.0 mi Calm Calm - N/A   Clear
2:56 AM 60.4 °F 60.4 °F 100% 30.13 in 10.0 mi Calm Calm - N/A   Mostly Cloudy
3:56 AM 60.1 °F 60.1 °F 100% 30.14 in 10.0 mi Calm Calm - N/A   Clear
4:56 AM 60.4 °F 60.4 °F 100% 30.14 in 10.0 mi Calm Calm - N/A   Partly Cloudy
5:56 AM 62.8 °F 62.8 °F 100% 30.14 in 10.0 mi East 3.5 mph - N/A   Mostly Cloudy
6:56 AM 62.8 °F 62.8 °F 100% 30.15 in 10.0 mi Calm Calm - N/A   Scattered Clouds
7:56 AM 63.9 °F 63.9 °F 100% 30.15 in 10.0 mi Calm Calm - N/A Fog Shallow Fog
8:56 AM 68.0 °F 68.0 °F 100% 30.17 in 10.0 mi Calm Calm - N/A   Mostly Cloudy
9:56 AM 72.5 °F 66.0 °F 80% 30.17 in 10.0 mi South 5.8 mph - N/A   Scattered Clouds
10:56 AM 75.9 °F 66.9 °F 74% 30.17 in 10.0 mi Calm Calm - N/A   Scattered Clouds
11:56 AM 75.7 °F 68.4 °F 78% 30.16 in 10.0 mi SE 5.8 mph - N/A   Scattered Clouds
12:56 PM 78.3 °F 68.9 °F 73% 30.16 in 10.0 mi SSE 5.8 mph - N/A   Mostly Cloudy
1:56 PM 78.3 °F 69.3 °F 74% 30.15 in 10.0 mi SE 5.8 mph - N/A   Scattered Clouds
2:56 PM 79.5 °F 70.9 °F 75% 30.13 in 10.0 mi SE 5.8 mph - N/A   Mostly Cloudy
3:56 PM 78.6 °F 71.4 °F 78% 30.12 in 10.0 mi ESE 6.9 mph - N/A   Mostly Cloudy
4:56 PM 77.9 °F 71.2 °F 80% 30.12 in 10.0 mi SE 9.2 mph - N/A   Mostly Cloudy
5:56 PM 77.0 °F 71.8 °F 84% 30.12 in 10.0 mi SSE 8.1 mph - N/A   Mostly Cloudy
6:56 PM 75.6 °F 71.4 °F 87% 30.12 in 10.0 mi South 8.1 mph - N/A   Mostly Cloudy
7:56 PM 70.5 °F 70.5 °F 100% 30.13 in 10.0 mi SSE 6.9 mph - N/A   Scattered Clouds
8:56 PM 68.7 °F 68.7 °F 100% 30.14 in 10.0 mi SSE 3.5 mph - N/A   Scattered Clouds
9:56 PM 69.1 °F 69.1 °F 100% 30.16 in 10.0 mi SSE 3.5 mph - N/A   Partly Cloudy
10:56 PM 67.3 °F 67.3 °F 100% 30.16 in 10.0 mi Calm Calm - N/A   Partly Cloudy
11:56 PM 67.5 °F 67.5 °F 100% 30.15 in 10.0 mi Calm Calm - N/A   Scattered Clouds